Location: Bacharowice
(49.9333°N, 19.5833°E)
Time: 18:30:47
(UTC+00:00)

Daily predictions for brighter satellites

Satellite Brightness Start Highest point End
(mag) Time Altitude Azimuth Time Altitude Azimuth Time Altitude Azimuth
Cosmos 2322 4.3 16:57:58 10° S 17:03:09 37° ESE 17:08:23 10° NE
Cosmos 1844 Rocket 3.0 16:58:38 10° NNW 17:04:13 76° WSW 17:09:46 10° SSE
CZ-2C R/B 3.7 16:58:55 10° S 17:04:31 68° WSW 17:09:52 10° NNW
CSL-04 Rocket 4.1 16:59:47 10° SE 17:04:59 44° ENE 17:10:10 10° N
Cosmos 1703 Rocket 3.7 17:00:56 10° N 17:05:14 51° ENE 17:09:28 10° SSE
USA 308 3.4 17:01:20 10° WNW 17:05:32 51° N 17:09:42 10° E
Cosmos 1666 3.4 17:04:17 10° SSE 17:07:36 31° E 17:10:57 10° NNE
Cosmos 1777 Rocket 4.1 17:05:05 10° NNW 17:10:19 62° ENE 17:15:28 10° SE
BREEZE-M DEB (TANK) 1.6 17:09:23 10° W 17:11:36 85° S 17:15:43 10° E
Okean-O 2.6 17:07:35 10° SSE 17:11:59 70° ENE 17:16:25 10° N
CSL-04 Debris 4.4 17:07:11 10° SE 17:12:28 53° ENE 17:17:48 10° N
H-2A R/B 2.2 17:07:37 10° SSE 17:13:04 84° ENE 17:18:31 10° NNW
Cosmos 1933 Rocket 3.5 17:09:29 10° S 17:13:49 65° E 17:18:12 10° NNE
Cosmos 2237 4.3 17:08:42 10° SSW 17:14:27 86° WNW 17:20:14 10° NNE
CSL-04 DEB 4.4 17:12:18 10° NNE 17:16:19 86° WNW 17:20:23 10° SSW
Ariane Rocket 4.2 17:16:24 10° ESE 17:20:20 23° ENE 17:24:16 10° N
SJ-6B 4.2 17:17:59 10° ESE 17:21:03 21° ENE 17:24:05 10° NNE
Meteor 1-11 Rocket 4.2 17:18:39 10° SSE 17:23:47 37° E 17:28:51 10° NNE
Meteor 1-14 Rocket 4.2 17:19:36 10° S 17:25:09 89° W 17:30:44 10° NNE
Cosmos 1500 3.3 17:23:21 10° SSW 17:27:04 76° W 17:30:50 10° N
Cosmos 2360 Rocket 2.4 17:21:47 10° SSW 17:27:27 81° WNW 17:33:10 10° NNE
SJ-11-01 4.4 17:23:09 10° SSE 17:27:51 84° WSW 17:32:36 10° NNW
USA 186 2.7 17:28:02 15° ESE 17:29:10 19° ENE 17:31:11 10° NNE
Okean 1-7 3.0 17:25:20 10° N 17:29:44 84° E 17:34:03 10° S
Cosmos 1943 Rocket 4.1 17:27:13 10° N 17:30:23 15° NNE 17:33:33 10° ENE
OBJECT-B 2.4 17:29:06 14° E 17:30:25 17° ENE 17:32:36 10° NNE
Cosmos 1727 Rocket 4.4 17:25:05 10° N 17:30:53 40° ENE 17:36:41 10° SE
Cosmos 2341 Rocket 4.0 17:24:50 10° S 17:31:04 69° E 17:37:17 10° NNE
Meteor 1-13 Rocket 4.3 17:25:21 10° N 17:31:17 64° ENE 17:37:03 10° SSE
PSLV R/B 3.8 17:27:11 10° NNE 17:31:17 71° ESE 17:35:19 10° S
Cosmos 1844 4.5 17:26:33 10° NW 17:32:12 58° WSW 17:37:46 10° S
YAOGAN 1 2.9 17:29:01 10° S 17:33:19 70° WSW 17:37:40 10° NNW
Cosmos 2333 4.2 17:28:21 10° SSW 17:33:57 68° ESE 17:39:40 10° NNE
Cosmos 2278 Rocket 2.6 17:29:38 10° NNW 17:35:04 44° NE 17:40:17 11° ESE
Cosmos 2237 Rocket 3.5 17:31:26 10° SE 17:35:10 18° E 17:38:53 10° ENE
SAR-Lupe-4 3.5 17:34:10 10° NNE 17:37:45 60° ESE 17:41:17 10° S
SJ 16-02 1.8 17:33:55 10° N 17:38:09 42° ENE 17:42:16 10° SE
FALCON 9 DEB 2.9 17:36:04 10° WNW 17:39:15 80° SSW 17:41:32 17° ESE
DMSP B5D1-3 4.5 17:35:33 10° NNE 17:40:43 73° ESE 17:45:53 10° S
Meteor 1-5 Rocket 4.1 17:35:57 10° S 17:41:23 84° E 17:47:02 10° NNE
Cosmos 2218 Rocket 4.1 17:35:40 10° SSE 17:41:53 56° E 17:48:06 10° NNE
COSMO-SKYMED 1 4.1 17:38:30 10° N 17:42:34 40° WNW 17:46:37 10° SW
Okean 3 3.5 17:39:02 10° N 17:43:17 60° ENE 17:47:31 10° SSE
SL-4 R/B 3.0 17:40:59 10° W 17:44:12 32° SSW 17:47:18 10° SSE
Cosmos 1544 4.3 17:41:28 10° SE 17:44:15 21° E 17:47:04 10° NE
Cosmos 1536 3.2 17:41:21 10° SSE 17:45:05 40° E 17:48:49 10° NNE
SeaSat 1 3.0 17:40:34 10° NE 17:45:06 35° ESE 17:49:37 10° S
Cosmos 2242 Rocket 4.4 17:42:42 10° NNW 17:47:06 56° W 17:51:27 10° S
FALCON 9 DEB 3.1 17:44:01 10° WNW 17:47:10 65° SSW 17:49:12 20° SE
USA 234 4.3 17:45:46 15° E 17:49:24 23° SE 17:54:23 10° S
MetOp-A 4.2 17:44:28 10° SE 17:49:41 55° ENE 17:54:56 10° N
Cosmos 1959 Rocket 4.4 17:45:12 10° S 17:51:11 62° E 17:57:15 10° NNE
Gbstr 26 Del rocket 3.3 17:47:24 10° WNW 17:51:56 83° NNE 17:55:47 20° ESE
Cosmos 2333 Rocket 2.1 17:49:09 10° SSW 17:54:49 78° ESE 18:00:35 10° NNE
Resurs 01 Rocket 3.1 17:54:08 18° ENE 17:54:58 19° ENE 17:58:06 10° NNE
USA 238 DEB 4.1 17:49:32 10° S 17:55:23 35° ESE 18:01:29 10° NE
USA 238 4.1 17:49:40 10° S 17:55:30 35° ESE 18:01:34 10° NE
Abrixas rocket 3.3 17:53:32 10° W 17:55:38 24° SSW 17:56:40 18° SSE
Cosmos 1937 Rocket 4.5 17:53:06 10° N 17:57:33 28° NE 17:59:38 21° E
SAR-Lupe-1 4.2 17:54:33 10° NNE 17:58:09 77° WNW 18:01:44 10° SSW
Helios 1A Rocket 3.4 17:56:02 10° S 18:00:01 60° WSW 18:04:02 10° NNW
Cosmos 2322 Rocket 3.9 17:56:24 10° WSW 18:01:25 33° NW 18:06:30 10° NNE
Lacrosse 4 Rocket 1.5 17:57:46 10° SSW 18:02:12 89° NW 18:06:44 10° NE
GP-B 3.6 17:57:58 10° S 18:02:22 63° W 18:06:48 10° N
ARGOS 3.9 17:58:57 10° S 18:04:16 55° W 18:09:37 10° NNW
ERBS 4.1 18:05:16 10° NW 18:08:00 23° N 18:09:27 17° NE
IRS-1A Rocket 4.3 18:03:25 12° SE 18:08:30 56° ENE 18:13:54 10° N
CZ-4B R/B 4.4 18:07:03 10° NNW 18:09:05 16° WNW 18:11:06 10° WSW
Cosmos 1869 Rocket 3.6 18:04:47 10° SSW 18:09:10 81° W 18:13:37 10° N
Resurs 1-3 4.2 18:08:04 27° ESE 18:09:41 37° ENE 18:13:45 10° N
CZ-4 R/B 3.8 18:06:41 10° SSW 18:09:53 24° W 18:13:09 10° NW
Cosmos 2219 Rocket 2.1 18:05:43 10° SSW 18:11:19 89° ESE 18:16:59 10° NNE
ERS-2 3.1 18:10:13 10° N 18:13:47 50° WNW 18:17:19 10° SW
CZ-2C R/B 2.7 18:08:42 10° NNE 18:14:11 82° WNW 18:19:31 10° SSW
Cosmos 1689 Rocket 3.9 18:12:45 10° N 18:15:24 32° WNW 18:18:02 10° SW
FALCON 9 DEB 3.9 18:12:47 10° WNW 18:15:46 39° SSW 18:16:47 29° S
Cosmos 1238 Rocket 2.4 18:13:21 10° S 18:17:21 69° E 18:20:44 10° NNE
Cosmos 1378 3.3 18:14:44 10° NNW 18:18:27 70° W 18:22:08 10° S
Cosmos 1980 4.0 18:14:13 10° S 18:19:26 40° ESE 18:24:40 10° NE
USA 305 2.8 18:16:52 10° WNW 18:21:11 88° NNE 18:22:40 40° ESE
NOSS 3-2 (A) 3.4 18:18:29 10° SSW 18:24:00 59° SE 18:30:24 10° NE
CREW DRAGON DEMO-1 DEB 3.3 18:21:46 10° SW 18:23:59 43° SSW 18:23:59 43° SSW
FALCON 9 DEB 3.9 18:22:14 10° WNW 18:25:15 39° SSW 18:25:51 35° S
COSMOS 2428 2.7 18:20:23 10° SSW 18:26:05 85° WNW 18:31:50 10° NNE
Cosmos 1733 Rocket 3.1 18:22:13 10° S 18:26:25 53° E 18:30:42 10° NNE
Meteor 2-20 4.4 18:27:58 10° N 18:34:07 85° W 18:40:15 10° S
USA 307 2.8 18:30:38 10° WNW 18:34:56 83° SSW 18:35:52 54° SE
Cosmos 2369 Rocket 3.7 18:31:02 10° N 18:35:10 20° NE 18:36:12 19° NE
CENTAUR R/B 2.6 18:30:03 10° SSW 18:35:42 50° ESE 18:42:27 10° NE
USA 306 2.8 18:31:54 10° WNW 18:36:12 80° SSW 18:37:06 54° SE
Cosmos 1898 Rocket 3.4 18:32:06 10° NNW 18:37:20 68° ENE 18:39:11 40° SE
NOSS 0 Rocket 3.8 18:31:22 10° SSW 18:37:26 65° ESE 18:43:32 10° NE
ATLAS CENTAUR R/B 3.7 18:35:28 10° WNW 18:38:07 18° NNW 18:40:49 10° NNE
Cosmos 1743 2.6 18:37:11 10° S 18:41:04 85° E 18:45:00 10° N
USA 308 2.8 18:41:27 10° WNW 18:45:44 74° SSW 18:46:15 64° SSE
ASTEX 1 3.7 18:45:56 10° N 18:50:48 68° W 18:55:38 10° SSW
Cosmos 1674 Rocket 3.4 18:50:20 10° N 18:54:41 89° W 18:55:15 67° S
Landsat 7 4.2 18:55:43 45° NE 18:55:43 45° NE 18:59:50 10° N
SJ-6B 3.9 18:52:44 18° SSW 18:55:26 44° W 18:59:18 10° NNW
Cosmos 372 Rocket 4.4 18:50:47 10° NNW 18:55:37 42° NE 18:55:37 42° NE
Cosmos 990 Rocket 4.1 18:52:37 10° NNW 18:57:48 73° WSW 18:59:41 40° S
Ariane Rocket 3.4 18:55:34 21° S 18:58:53 63° WSW 19:03:59 10° NNW
USA 186 4.1 18:59:36 16° WSW 18:59:58 16° W 19:01:44 10° NW
ARIANE 5 R/B 4.1 19:01:45 26° NNE 19:01:45 26° NNE 19:04:19 10° N
Cosmos 2297 3.8 18:56:29 10° NNW 19:02:08 54° NE 19:02:40 52° ENE
OBJECT-B 2.3 19:02:09 33° WSW 19:02:26 34° W 19:05:25 10° NNW
Cosmos 1763 Rocket 3.4 18:57:58 10° SSW 19:03:14 69° ESE 19:08:32 10° NNE
MetOp-B 4.1 19:04:19 58° ENE 19:04:29 58° ENE 19:09:45 10° N
NOSS 3-2 (C) 3.2 19:00:07 10° SSW 19:05:43 67° SE 19:08:11 37° ENE
Okean 2 4.1 19:01:51 10° N 19:04:48 45° N 19:04:48 45° N
Cosmos 1378 Rocket 3.6 19:04:42 10° NNW 19:09:10 77° W 19:09:21 75° SW
Cosmos 468 Rocket 3.9 19:09:37 10° SSW 19:14:56 88° ESE 19:20:16 10° NNE
Cosmos 1943 Rocket 2.5 19:10:05 10° NNW 19:15:25 48° NE 19:15:25 48° NE
SJ 16-02 3.4 19:12:56 10° NW 19:16:30 24° W 19:19:18 14° SSW
Cosmos 1535 Rocket 4.4 19:16:24 62° SE 19:17:04 66° E 19:23:23 10° NNE
Cosmos 1821 Rocket 4.1 19:10:54 10° SSW 19:17:06 73° WNW 19:23:15 10° N
Cosmos 2237 Rocket 2.1 19:12:46 10° SSW 19:18:28 85° WNW 19:24:14 10° NNE
Cosmos 858 Rocket 4.4 19:13:16 10° NNW 19:18:29 81° WSW 19:18:47 77° SSW
Cosmos 2278 Rocket 3.4 19:13:55 10° NW 19:19:06 37° WSW 19:22:10 21° SSW
Meteor 1-21 4.2 19:16:34 10° NNW 19:22:19 87° W 19:23:05 69° S
SeaSat 1 3.5 19:18:01 10° NNE 19:22:42 44° NW 19:27:22 10° WSW
SPOT 3 Rocket 3.6 19:24:25 66° SSW 19:24:59 73° WSW 19:30:14 10° NNW
Cosmos 1934 Rocket 3.8 19:30:07 70° S 19:30:52 86° E 19:37:04 10° N
Resurs 01 Rocket 2.3 19:31:41 53° WNW 19:31:41 53° WNW 19:35:27 10° NNW
SPOT 1/Viking Rocket 3.9 19:33:55 56° N 19:33:55 56° N 19:38:05 10° NNW
USA 234 3.1 19:33:09 70° SE 19:33:13 70° SE 19:39:45 10° SW
USA 245 4.3 19:35:05 79° ENE 19:35:05 79° ENE 19:41:20 10° NNW
Gbstr 26 Del rocket 4.3 19:34:04 10° WNW 19:38:19 43° SW 19:38:19 43° SW
Cosmos 2333 Rocket 4.3 19:35:01 10° W 19:39:45 26° NW 19:44:31 10° NNE
Cosmos 2123 Rocket 4.1 19:33:35 10° NNW 19:39:48 70° W 19:41:02 56° SSW
Cosmos 1937 Rocket 4.0 19:34:47 10° NNW 19:39:49 53° WSW 19:39:50 53° WSW
Lacrosse 4 Rocket 4.1 19:38:15 10° W 19:41:32 20° NW 19:44:52 10° NNE
USA 238 DEB 3.9 19:39:22 10° WSW 19:45:57 65° NW 19:52:55 10° NE
USA 238 3.9 19:39:29 10° SW 19:46:04 66° NW 19:53:02 10° NE
Cosmos 2219 Rocket 4.4 19:51:42 10° W 19:56:04 23° NW 20:00:28 10° NNE
Terra 3.8 20:00:53 22° N 20:00:53 22° N 20:02:38 10° N
ERS-1 Rocket 4.4 20:03:06 32° N 20:03:06 32° N 20:05:50 10° N
Cosmos 1605 Rocket 4.4 20:15:57 60° NNW 20:15:57 60° NNW 20:21:18 10° N
NOSS 3-2 (A) 4.5 20:09:30 10° WSW 20:15:08 43° NNW 20:21:42 10° NE
Cosmos 2369 Rocket 3.3 20:14:28 10° NNW 20:18:00 40° NNW 20:18:00 40° NNW
CENTAUR R/B 3.3 20:20:21 10° WSW 20:26:26 51° NNW 20:33:43 10° NE
BREEZE M DEB (TANK) 4.4 19:57:08 10° W 20:28:49 88° S 20:29:33 79° ESE
USA 281 4.1 20:54:08 44° N 20:54:08 44° N 20:58:29 10° NNW
Cosmos 1943 Rocket 4.1 20:54:09 10° NW 20:56:58 25° WNW 20:56:58 25° WNW
Cosmos 2237 Rocket 4.4 20:59:03 10° W 21:03:25 22° NW 21:07:47 10° NNE
CENTAUR R/B 4.4 22:12:55 10° WNW 22:18:53 30° N 22:25:42 10° NE
ATLAS 3B R/B 4.4 23:35:00 27° N 23:35:00 27° N 23:39:37 10° NE
